This is the latest recevied weather packets stored in our database for station/object CYVR. If no packets are shown the sender has not sent any weather packets the latest 1 day(s).
| Time | Temp. | Humidity | Pressure | Rain* | Wind** | Luminosity | Snow |
|---|---|---|---|---|---|---|---|
| 1778099002 | 13.89° C | 82% | 1019.6 hPa | - | - | - | - |
| 1778097203 | 12.78° C | 87% | 1019.6 hPa | - | - | - | - |
| 1778093602 | 13.89° C | 82% | 1019.3 hPa | - | - | - | - |
| 1778092404 | 13.89° C | 82% | 1019.3 hPa | - | - | - | - |
| 1778087604 | 13.89° C | 76% | 1019 hPa | - | - | - | - |
| 1778080402 | 12.78° C | 87% | 1018.6 hPa | - | - | - | - |
| 1778079803 | 11.67° C | 93% | 1017.9 hPa | - | - | - | - |
| 1778078602 | 11.67° C | 93% | 1017.9 hPa | - | - | - | - |
| 1778076799 | 11.67° C | 93% | 1017.9 hPa | - | - | - | - |
| 1778075600 | 10.56° C | 100% | 1017.6 hPa | - | - | - | - |
| 1778074396 | 10.56° C | 100% | 1017.6 hPa | - | - | - | - |
| 1778072602 | 10.56° C | 100% | 1017.3 hPa | - | - | - | - |
| 1778071998 | 10.56° C | 100% | 1017.3 hPa | - | - | - | - |
| 1778071401 | 10.56° C | 100% | 1017.3 hPa | - | - | - | - |
| 1778070201 | 10.56° C | 100% | 1017.3 hPa | - | - | - | - |
| 1778069600 | 10.56° C | 100% | 1017.3 hPa | - | - | - | - |
| 1778067198 | 11.67° C | 93% | 1016.6 hPa | - | - | - | - |
| 1778066603 | 11.67° C | 93% | 1016.6 hPa | - | - | - | - |
| 1778066002 | 11.67° C | 93% | 1016.6 hPa | - | - | - | - |
| 1778065399 | 11.67° C | 93% | 1015.9 hPa | - | - | - | - |
| 1778064202 | 11.67° C | 93% | 1015.9 hPa | - | - | - | - |
| 1778063002 | 11.67° C | 93% | 1015.9 hPa | - | - | - | - |
| 1778062400 | 11.67° C | 93% | 1015.9 hPa | - | - | - | - |
| 1778061801 | 12.78° C | 87% | 1015.6 hPa | - | - | - | - |
| 1778059400 | 12.78° C | 87% | 1015.6 hPa | - | - | - | - |
* Rain since midnight (hover to see other rain measurements)
** Current wind speed in m/s (hover to see current wind gust speed)